• In Uzbekistan
  • List of Countries
  • For 7 days
  • Water Temperature
  • Satellite Maps
  • Weather Map
  • Weather Widgets
  • user-avatar
    Login

    Hourly Weather Malbun

    Today, 20 January, Sunday

    Time Temperature Precipitation Wind Pressure Humidity
    00:00 -13°C° 0 mm 2 mps 624 mmHg 78%
    01:00 -13°C° 0 mm 2 mps 624 mmHg 78%
    02:00 -13°C° 0 mm 2 mps 624 mmHg 77%
    03:00 -12°C° 0 mm 2 mps 624 mmHg 77%
    04:00 -12°C° 0 mm 2 mps 624 mmHg 76%
    05:00 -12°C° 0 mm 2 mps 624 mmHg 76%
    06:00 -12°C° 0 mm 2 mps 624 mmHg 75%
    07:00 -12°C° 0 mm 2 mps 624 mmHg 75%
    08:00 -10°C° 0 mm 2 mps 624 mmHg 75%
    09:00 -9°C° 0 mm 2 mps 625 mmHg 75%
    10:00 -6°C° 0 mm 1 mps 625 mmHg 76%
    11:00 -4°C° 0 mm 1 mps 626 mmHg 74%
    12:00 -3°C° 0 mm 1 mps 626 mmHg 72%
    13:00 -3°C° 0 mm 0 mps 626 mmHg 70%
    14:00 -4°C° 0 mm 0 mps 626 mmHg 75%
    15:00 -4°C° 0 mm 0 mps 626 mmHg 81%
    16:00 -4°C° 0 mm 0 mps 626 mmHg 86%
    17:00 -6°C° 0 mm 0 mps 626 mmHg 87%
    18:00 -7°C° 0 mm 1 mps 625 mmHg 88%
    19:00 -8°C° 0 mm 1 mps 625 mmHg 89%
    20:00 -8°C° 0 mm 1 mps 626 mmHg 89%
    21:00 -8°C° 0 mm 1 mps 626 mmHg 88%
    22:00 -9°C° 0 mm 1 mps 626 mmHg 87%
    23:00 -9°C° 0 mm 1 mps 626 mmHg 87%

    Tomorrow, 21 January, Monday

    Time Temperature Precipitation Wind Pressure Humidity
    00:00 -9°C° 0 mm 1 mps 627 mmHg 86%
    01:00 -9°C° 0 mm 1 mps 627 mmHg 86%
    02:00 -9°C° 0 mm 1 mps 627 mmHg 86%
    03:00 -9°C° 0 mm 1 mps 627 mmHg 86%
    04:00 -10°C° 0 mm 1 mps 627 mmHg 86%
    05:00 -10°C° 0 mm 1 mps 627 mmHg 85%
    06:00 -10°C° 0 mm 1 mps 627 mmHg 85%
    07:00 -10°C° 0 mm 1 mps 627 mmHg 85%
    08:00 -9°C° 0 mm 1 mps 627 mmHg 84%
    09:00 -8°C° 0 mm 1 mps 628 mmHg 84%
    10:00 -7°C° 0 mm 1 mps 629 mmHg 83%
    11:00 -6°C° 0 mm 1 mps 629 mmHg 83%
    12:00 -4°C° 0 mm 1 mps 629 mmHg 83%
    13:00 -3°C° 0 mm 1 mps 629 mmHg 83%
    14:00 -4°C° 0 mm 1 mps 628 mmHg 87%
    15:00 -4°C° 0 mm 1 mps 628 mmHg 90%
    16:00 -6°C° 0 mm 1 mps 628 mmHg 94%
    17:00 -7°C° 0 mm 1 mps 628 mmHg 95%
    18:00 -8°C° 0 mm 0 mps 628 mmHg 96%
    19:00 -9°C° 0 mm 0 mps 628 mmHg 96%
    20:00 -9°C° 0 mm 1 mps 627 mmHg 94%
    21:00 -10°C° 0 mm 1 mps 627 mmHg 92%
    22:00 -13°C° 0 mm 2 mps 627 mmHg 89%
    23:00 -13°C° 0 mm 2 mps 627 mmHg 86%

    Day after tomorrow, 22 January, Tuesday

    Time Temperature Precipitation Wind Pressure Humidity
    00:00 -14°C° 0 mm 2 mps 626 mmHg 84%
    01:00 -14°C° 0 mm 2 mps 626 mmHg 81%
    02:00 -14°C° 0 mm 2 mps 625 mmHg 78%
    03:00 -14°C° 0 mm 2 mps 625 mmHg 76%
    04:00 -15°C° 0 mm 2 mps 624 mmHg 74%
    05:00 -15°C° 0 mm 2 mps 624 mmHg 72%
    06:00 -15°C° 0 mm 2 mps 623 mmHg 70%
    07:00 -15°C° 0 mm 2 mps 623 mmHg 68%
    08:00 -14°C° 0 mm 2 mps 623 mmHg 68%
    09:00 -12°C° 0 mm 2 mps 623 mmHg 69%
    10:00 -10°C° 0 mm 2 mps 622 mmHg 69%
    11:00 -8°C° 0 mm 2 mps 622 mmHg 66%
    12:00 -4°C° 0 mm 1 mps 622 mmHg 63%
    13:00 -2°C° 0 mm 1 mps 621 mmHg 60%
    14:00 -3°C° 0 mm 1 mps 620 mmHg 65%
    15:00 -4°C° 0 mm 1 mps 619 mmHg 70%
    16:00 -4°C° 0 mm 1 mps 618 mmHg 75%
    17:00 -8°C° 0 mm 2 mps 617 mmHg 75%
    18:00 -9°C° 0 mm 2 mps 616 mmHg 76%
    19:00 -13°C° 0 mm 3 mps 616 mmHg 77%
    20:00 -14°C° 0 mm 3 mps 615 mmHg 77%
    21:00 -14°C° 0 mm 3 mps 615 mmHg 76%
    22:00 -15°C° 0 mm 3 mps 615 mmHg 76%
    23:00 -15°C° 0 mm 3 mps 614 mmHg 76%

    23 January, Wednesday

    Time Temperature Precipitation Wind Pressure Humidity
    00:00 -14°C° 0 mm 2 mps 614 mmHg 76%
    01:00 -14°C° 0 mm 2 mps 613 mmHg 77%
    02:00 -14°C° 0 mm 2 mps 613 mmHg 76%
    03:00 -14°C° 0 mm 2 mps 613 mmHg 76%
    04:00 -13°C° 0 mm 2 mps 613 mmHg 76%
    05:00 -11°C° 0 mm 1 mps 613 mmHg 76%
    06:00 -11°C° 0 mm 1 mps 613 mmHg 76%
    07:00 -11°C° 0 mm 1 mps 613 mmHg 76%
    08:00 -11°C° 0 mm 1 mps 613 mmHg 76%
    09:00 -10°C° 0 mm 1 mps 614 mmHg 76%
    10:00 -9°C° 0 mm 0 mps 614 mmHg 76%
    11:00 -8°C° 0 mm 1 mps 614 mmHg 77%
    12:00 -7°C° 0 mm 1 mps 614 mmHg 77%
    13:00 -6°C° 0 mm 1 mps 614 mmHg 78%
    14:00 -7°C° 0 mm 1 mps 614 mmHg 83%
    15:00 -8°C° 0 mm 2 mps 614 mmHg 87%
    16:00 -8°C° 0 mm 2 mps 614 mmHg 91%
    17:00 -9°C° 0.1 mm 2 mps 615 mmHg 93%
    18:00 -9°C° 0.1 mm 1 mps 615 mmHg 95%
    19:00 -9°C° 0.1 mm 1 mps 615 mmHg 97%
    20:00 -9°C° 0.1 mm 1 mps 616 mmHg 96%
    21:00 -9°C° 0.1 mm 1 mps 616 mmHg 96%
    22:00 -10°C° 0.1 mm 1 mps 617 mmHg 96%
    23:00 -10°C° 0 mm 1 mps 617 mmHg 95%

    24 January, Thursday

    Time Temperature Precipitation Wind Pressure Humidity
    00:00 -11°C° 0 mm 1 mps 617 mmHg 95%
    01:00 -11°C° 0 mm 1 mps 616 mmHg 94%
    02:00 -11°C° 0 mm 1 mps 617 mmHg 93%
    03:00 -11°C° 0 mm 1 mps 617 mmHg 92%
    04:00 -11°C° 0 mm 1 mps 617 mmHg 91%
    05:00 -12°C° 0 mm 1 mps 617 mmHg 91%
    06:00 -12°C° 0 mm 1 mps 618 mmHg 91%
    07:00 -12°C° 0 mm 1 mps 618 mmHg 90%
    08:00 -11°C° 0 mm 1 mps 619 mmHg 89%
    09:00 -10°C° 0 mm 1 mps 619 mmHg 87%
    10:00 -9°C° 0 mm 0 mps 620 mmHg 85%
    11:00 -9°C° 0 mm 1 mps 620 mmHg 85%
    12:00 -8°C° 0 mm 1 mps 620 mmHg 84%
    13:00 -8°C° 0 mm 1 mps 620 mmHg 84%
    14:00 -8°C° 0 mm 1 mps 620 mmHg 86%
    15:00 -8°C° 0 mm 1 mps 620 mmHg 88%
    16:00 -9°C° 0 mm 2 mps 621 mmHg 89%
    17:00 -9°C° 0.1 mm 1 mps 621 mmHg 91%
    18:00 -9°C° 0.1 mm 1 mps 622 mmHg 92%
    19:00 -10°C° 0.1 mm 1 mps 622 mmHg 94%
    20:00 -10°C° 0 mm 1 mps 623 mmHg 94%
    21:00 -11°C° 0 mm 1 mps 623 mmHg 94%
    22:00 -12°C° 0 mm 1 mps 623 mmHg 94%
    23:00 -12°C° 0 mm 1 mps 623 mmHg 93%

    25 January, Friday

    Time Temperature Precipitation Wind Pressure Humidity
    00:00 -13°C° 0 mm 1 mps 623 mmHg 92%
    01:00 -14°C° 0 mm 1 mps 623 mmHg 90%
    02:00 -14°C° 0 mm 1 mps 623 mmHg 89%
    03:00 -14°C° 0 mm 1 mps 623 mmHg 87%
    04:00 -15°C° 0 mm 1 mps 623 mmHg 85%
    05:00 -15°C° 0 mm 1 mps 623 mmHg 83%
    06:00 -15°C° 0 mm 1 mps 624 mmHg 81%
    07:00 -15°C° 0 mm 1 mps 624 mmHg 80%
    08:00 -14°C° 0 mm 1 mps 625 mmHg 78%
    09:00 -13°C° 0 mm 1 mps 625 mmHg 77%
    10:00 -11°C° 0 mm 1 mps 626 mmHg 76%
    11:00 -10°C° 0 mm 1 mps 626 mmHg 76%
    12:00 -9°C° 0 mm 1 mps 627 mmHg 76%
    13:00 -8°C° 0 mm 1 mps 627 mmHg 76%
    14:00 -8°C° 0 mm 1 mps 627 mmHg 81%
    15:00 -8°C° 0 mm 1 mps 627 mmHg 85%
    16:00 -9°C° 0 mm 1 mps 627 mmHg 89%
    17:00 -9°C° 0 mm 1 mps 628 mmHg 91%
    18:00 -10°C° 0 mm 0 mps 628 mmHg 92%
    19:00 -11°C° 0 mm 0 mps 628 mmHg 94%
    20:00 -12°C° 0 mm 0 mps 628 mmHg 93%
    21:00 -12°C° 0 mm 1 mps 629 mmHg 92%
    22:00 -13°C° 0 mm 1 mps 629 mmHg 91%
    23:00 -13°C° 0 mm 1 mps 628 mmHg 89%
    Show more